Location: Freiburg+im+Breisgau
(48.0359°N, 7.8195°E)
Time: 14:38:36
(UTC+01:00)

ISS - Pass Details

Date: 09 January 2018
Orbit: 402 x 407 km, 51.6° (Epoch: 18 January)

Event Time Altitude Azimuth Distance (km) Brightness Sun altitude
Exits shadow 07:21:27 13° 291° (WNW) 1,303 -2.0 -9.0°
Maximum altitude 07:24:20 78° 207° (SSW) 420 -3.8 -8.6°
Drops below altitude 10° 07:27:37 10° 119° (ESE) 1,465 0.7 -8.1°
Sets 07:29:42 0° 118° (ESE) 2,324 2.6 -7.8°
